Eastover, SC

6:32 AM EST on December 08, 2019 (GMT -0500)
McEntire Angs

Weather History for KMMT - November, 2019

Change the Weather History Date:

Tuesday, November 12, 2019

  Actual Average Record
Temperature  
Mean Temperature 46 °F -  
Max Temperature 59 °F 63 °F 78 °F (2003)
Min Temperature 31 °F 43 °F 27 °F (2011)
Degree Days  
Heating Degree Days 20    
Moisture  
Dew Point 47 °F    
Average Humidity 93    
Maximum Humidity 100    
Minimum Humidity 57    
Precipitation  
Precipitation 0.40 in - - ()
Sea Level Pressure  
Sea Level Pressure 29.99 in    
Wind  
Wind Speed 5 mph ()    
Max Wind Speed 18 mph    
Max Gust Speed 29 mph    
Visibility 7.1 miles    
Events Rain    
Averages and records for this station are not official NWS values.
T = Trace of Precipitation, MM = Missing Value Source: Averaged Metar Reports

Daily Weather History Graph

Daily Weather History Graph

Search for Another Location

Airport or City:

Astronomy

Nov. 12, 2019 Rise Set
Actual Time 6:52 AM EST 5:21 PM EST
Civil Twilight 6:26 AM EST 5:48 PM EST
Nautical Twilight 5:56 AM EST 6:18 PM EST
Astronomical Twilight 5:26 AM EST 6:47 PM EST
Moon 5:46 PM EST (11/12) 6:44 AM EST (11/12)
Length of Visible Light 11h 22m
Length of Day
10h 29m
Full, 100% of the Moon is Illuminated
Nov 12
Full
Nov 19
Last Quarter
Nov 26
New
Dec 4
First Quarter
Dec 12
Full

Hourly Weather History & Observations

Time (EST) Temp. Windchill Dew Point Humidity Pressure Visibility Wind Dir Wind Speed Gust Speed Precip Events Conditions
12:56 AM 48.0 °F - 46.0 °F 93% 30.01 in 10.0 mi Calm Calm - N/A   Mostly Cloudy
1:56 AM 48.9 °F - 48.0 °F 97% 29.99 in 10.0 mi Calm Calm - N/A   Mostly Cloudy
2:56 AM 48.6 °F - 48.0 °F 98% 29.95 in 10.0 mi Calm Calm - N/A   Mostly Cloudy
3:56 AM 51.4 °F - 50.4 °F 96% 29.92 in 10.0 mi Calm Calm - N/A   Overcast
4:56 AM 51.3 °F - 50.4 °F 97% 29.90 in 10.0 mi Calm Calm - N/A   Overcast
5:56 AM 51.1 °F - 50.7 °F 99% 29.89 in 10.0 mi Calm Calm - N/A   Overcast
6:56 AM 52.9 °F - 52.5 °F 99% 29.89 in 10.0 mi Calm Calm - N/A   Overcast
7:56 AM 55.8 °F - 55.2 °F 98% 29.90 in 10.0 mi Calm Calm - N/A   Overcast
8:33 AM 55.4 °F - 55.4 °F 100% 29.91 in 10.0 mi Calm Calm - N/A Rain Light Rain
8:56 AM 57.7 °F - 56.8 °F 97% 29.92 in 7.0 mi West 4.6 mph - 0.00 in Rain Light Rain
9:33 AM 59.0 °F - 57.2 °F 94% 29.93 in 3.0 mi NW 3.5 mph - N/A Rain Light Rain
9:56 AM 58.6 °F - 58.1 °F 98% 29.93 in 3.0 mi Calm Calm - 0.03 in Rain Light Rain
10:48 AM 57.2 °F - 57.2 °F 100% 29.93 in 1.5 mi NW 3.5 mph - N/A Rain Light Rain
10:56 AM 57.9 °F - 57.9 °F 100% 29.93 in 1.5 mi NW 3.5 mph - 0.04 in Rain Light Rain
11:06 AM 57.2 °F - 57.2 °F 100% 29.93 in 3.0 mi NW 5.8 mph - N/A Rain Heavy Rain
11:36 AM 57.2 °F - 57.2 °F 100% 29.92 in 2.0 mi North 5.8 mph - N/A Rain Light Rain
11:51 AM 57.2 °F - 57.2 °F 100% 29.92 in 2.0 mi NNW 8.1 mph - N/A Rain Light Rain Showers
11:56 AM 57.0 °F - 57.0 °F 100% 29.92 in 2.0 mi NNW 9.2 mph - 0.12 in Rain Light Rain
12:11 PM 57.2 °F - 57.2 °F 100% 29.92 in 1.8 mi NNW 9.2 mph - N/A Rain Light Rain
12:26 PM 57.2 °F - 57.2 °F 100% 29.93 in 2.0 mi NNW 9.2 mph - N/A Rain Light Rain
12:41 PM 55.4 °F - 55.4 °F 100% 29.93 in 1.5 mi North 10.4 mph - N/A Rain Rain
12:55 PM 55.2 °F - 55.2 °F 100% 29.91 in 3.0 mi North 9.2 mph - 0.14 in Rain Light Rain
1:06 PM 55.4 °F - 55.4 °F 100% 29.92 in 3.0 mi North 9.2 mph - N/A Rain Light Rain
1:20 PM 55.4 °F - 55.4 °F 100% 29.92 in 4.0 mi North 18.4 mph 25.3 mph N/A Rain Light Rain
1:26 PM 53.6 °F - 53.6 °F 100% 29.93 in 5.0 mi North 16.1 mph 25.3 mph N/A Rain Light Rain
1:36 PM 51.8 °F - 51.8 °F 100% 29.93 in 5.0 mi North 11.5 mph 23.0 mph N/A Rain Light Rain
1:46 PM 50.0 °F - 50.0 °F 100% 29.95 in 10.0 mi North 10.4 mph 21.9 mph N/A Rain Light Rain
1:56 PM 49.3 °F - 48.2 °F 96% 29.95 in 10.0 mi North 17.3 mph 28.8 mph 0.04 in Rain Light Rain
2:16 PM 48.2 °F - 46.4 °F 93% 29.96 in 7.0 mi North 10.4 mph - N/A Rain Light Rain
2:46 PM 46.4 °F 40.7 °F 44.6 °F 93% 29.98 in 10.0 mi North 12.7 mph 20.7 mph N/A   Overcast
2:56 PM 46.0 °F 40.2 °F 44.1 °F 93% 29.99 in 10.0 mi NNW 12.7 mph 20.7 mph 0.02 in Rain Light Rain
3:16 PM 46.4 °F 40.4 °F 44.6 °F 93% 30.00 in 4.0 mi NNE 13.8 mph 18.4 mph N/A Rain Light Rain
3:29 PM 44.6 °F 38.4 °F 42.8 °F 93% 30.01 in 7.0 mi North 12.7 mph - N/A Rain Light Rain
3:36 PM 44.6 °F 39.7 °F 42.8 °F 93% 30.01 in 7.0 mi NNE 9.2 mph 20.7 mph N/A Rain Light Rain
3:46 PM 42.8 °F 36.6 °F 41.0 °F 93% 30.03 in 7.0 mi North 11.5 mph 19.6 mph N/A Rain Light Rain
3:56 PM 43.2 °F 37.4 °F 41.0 °F 92% 30.03 in 7.0 mi North 10.4 mph 18.4 mph 0.01 in Rain Light Rain
4:06 PM 42.8 °F 37.0 °F 41.0 °F 93% 30.03 in 10.0 mi North 10.4 mph - N/A   Overcast
4:16 PM 42.8 °F 38.6 °F 41.0 °F 93% 30.04 in 10.0 mi North 6.9 mph - N/A   Light Drizzle
4:36 PM 42.8 °F 37.0 °F 41.0 °F 93% 30.05 in 10.0 mi NE 10.4 mph 18.4 mph N/A   Light Drizzle
4:43 PM 42.8 °F 37.5 °F 41.0 °F 93% 30.05 in 10.0 mi North 9.2 mph 18.4 mph N/A   Overcast
4:56 PM 41.5 °F 35.0 °F 39.7 °F 93% 30.06 in 10.0 mi NNE 11.5 mph 17.3 mph 0.00 in   Overcast
5:06 PM 41.0 °F 36.4 °F 39.2 °F 93% 30.06 in 10.0 mi NNE 6.9 mph - N/A   Overcast
5:56 PM 40.6 °F 35.4 °F 35.6 °F 82% 30.09 in 10.0 mi North 8.1 mph - N/A   Mostly Cloudy
6:56 PM 40.5 °F 37.3 °F 34.7 °F 80% 30.12 in 10.0 mi North 4.6 mph - N/A   Mostly Cloudy
7:56 PM 36.9 °F 33.1 °F 33.6 °F 88% 30.15 in 10.0 mi North 4.6 mph - N/A   Partly Cloudy
8:56 PM 36.7 °F 30.5 °F 32.0 °F 83% 30.19 in 10.0 mi North 8.1 mph - N/A   Clear
9:56 PM 35.2 °F 27.6 °F 24.3 °F 64% 30.23 in 10.0 mi North 10.4 mph 20.7 mph N/A   Clear
10:56 PM 32.9 °F 24.7 °F 20.5 °F 60% 30.25 in 10.0 mi North 10.4 mph 18.4 mph N/A   Clear
11:56 PM 31.3 °F 24.7 °F 17.8 °F 57% 30.27 in 10.0 mi North 6.9 mph - N/A   Clear